When you browse on this site, cookies collect data to enhance your experience and personalize the content and advertising you see.
Visit our Privacy Policy to learn more. By continuing to use the site, you agree to this use of cookies and data.
  • In Portugal
  • List of Countries
  • For 7 days
  • Water Temperature
  • Satellite Maps
  • Weather Map
  • Weather Widgets
  • user-avatar
    Login

    Hourly Weather Meshhed

    Today, 21 March, Thursday

    Time Temperature Precipitation Wind Pressure Humidity
    00:00 +1°C° 0.2 mm 3 mps 611 mmHg 84%
    01:00 +1°C° 0.2 mm 3 mps 611 mmHg 85%
    02:00 +1°C° 0.1 mm 3 mps 611 mmHg 85%
    03:00 +1°C° 0.1 mm 3 mps 611 mmHg 86%
    04:00 0°C° 0.1 mm 3 mps 611 mmHg 86%
    05:00 0°C° 0 mm 3 mps 611 mmHg 86%
    06:00 0°C° 0 mm 3 mps 611 mmHg 86%
    07:00 0°C° 0 mm 3 mps 611 mmHg 86%
    08:00 +1°C° 0 mm 3 mps 611 mmHg 82%
    09:00 +1°C° 0 mm 3 mps 611 mmHg 78%
    10:00 +2°C° 0 mm 3 mps 611 mmHg 75%
    11:00 +2°C° 0.3 mm 3 mps 611 mmHg 73%
    12:00 +3°C° 0.3 mm 3 mps 611 mmHg 71%
    13:00 +4°C° 0.3 mm 2 mps 611 mmHg 69%
    14:00 +3°C° 0.6 mm 3 mps 611 mmHg 69%
    15:00 +3°C° 0.6 mm 3 mps 611 mmHg 70%
    16:00 +3°C° 0.6 mm 3 mps 610 mmHg 70%
    17:00 +3°C° 0.2 mm 3 mps 610 mmHg 72%
    18:00 +3°C° 0.2 mm 3 mps 611 mmHg 75%
    19:00 +2°C° 0.2 mm 3 mps 611 mmHg 77%
    20:00 +2°C° 0.5 mm 3 mps 611 mmHg 80%
    21:00 +2°C° 0.5 mm 3 mps 611 mmHg 83%
    22:00 +1°C° 0.5 mm 3 mps 611 mmHg 85%
    23:00 +1°C° 0.4 mm 3 mps 611 mmHg 86%

    Tomorrow, 22 March, Friday

    Time Temperature Precipitation Wind Pressure Humidity
    00:00 +1°C° 0.4 mm 3 mps 611 mmHg 86%
    01:00 +1°C° 0.4 mm 3 mps 610 mmHg 87%
    02:00 +1°C° 0.1 mm 3 mps 610 mmHg 87%
    03:00 +2°C° 0.1 mm 2 mps 610 mmHg 88%
    04:00 +2°C° 0.1 mm 2 mps 610 mmHg 88%
    05:00 +2°C° 0.2 mm 2 mps 610 mmHg 88%
    06:00 +2°C° 0.2 mm 2 mps 610 mmHg 88%
    07:00 +2°C° 0.2 mm 2 mps 610 mmHg 88%
    08:00 +1°C° 0.3 mm 3 mps 611 mmHg 86%
    09:00 +2°C° 0.3 mm 3 mps 611 mmHg 84%
    10:00 +1°C° 0.3 mm 4 mps 611 mmHg 81%
    11:00 +3°C° 0.4 mm 4 mps 611 mmHg 80%
    12:00 +3°C° 0.4 mm 4 mps 611 mmHg 78%
    13:00 +2°C° 0.4 mm 5 mps 611 mmHg 77%
    14:00 +3°C° 1.2 mm 4 mps 610 mmHg 77%
    15:00 +3°C° 1.2 mm 4 mps 610 mmHg 78%
    16:00 +3°C° 1.2 mm 3 mps 610 mmHg 78%
    17:00 +3°C° 0.9 mm 3 mps 610 mmHg 80%
    18:00 +2°C° 0.9 mm 3 mps 610 mmHg 82%
    19:00 +3°C° 0.9 mm 2 mps 610 mmHg 83%
    20:00 +2°C° 0.3 mm 3 mps 611 mmHg 83%
    21:00 +1°C° 0.3 mm 3 mps 611 mmHg 82%
    22:00 +1°C° 0.3 mm 3 mps 611 mmHg 81%
    23:00 +2°C° 0 mm 2 mps 611 mmHg 80%

    Day after tomorrow, 23 March, Saturday

    Time Temperature Precipitation Wind Pressure Humidity
    00:00 +1°C° 0 mm 2 mps 611 mmHg 79%
    01:00 -1°C° 0 mm 2 mps 610 mmHg 78%
    02:00 -1°C° 0 mm 2 mps 610 mmHg 77%
    03:00 +1°C° 0 mm 1 mps 610 mmHg 77%
    04:00 0°C° 0 mm 1 mps 610 mmHg 76%
    05:00 +1°C° 0 mm 1 mps 611 mmHg 74%
    06:00 +1°C° 0 mm 1 mps 611 mmHg 73%
    07:00 +1°C° 0 mm 1 mps 611 mmHg 71%
    08:00 +2°C° 0 mm 1 mps 612 mmHg 66%
    09:00 +3°C° 0 mm 1 mps 612 mmHg 61%
    10:00 +3°C° 0 mm 0 mps 613 mmHg 56%
    11:00 +5°C° 0 mm 1 mps 613 mmHg 51%
    12:00 +6°C° 0 mm 1 mps 613 mmHg 46%
    13:00 +7°C° 0 mm 1 mps 613 mmHg 42%
    14:00 +8°C° 0 mm 1 mps 613 mmHg 39%
    15:00 +8°C° 0 mm 1 mps 612 mmHg 37%
    16:00 +9°C° 0 mm 1 mps 612 mmHg 35%
    17:00 +8°C° 0 mm 1 mps 612 mmHg 35%
    18:00 +7°C° 0 mm 1 mps 612 mmHg 34%
    19:00 +7°C° 0 mm 1 mps 611 mmHg 34%
    20:00 +5°C° 0 mm 2 mps 611 mmHg 42%
    21:00 +5°C° 0 mm 2 mps 611 mmHg 49%
    22:00 +4°C° 0 mm 2 mps 611 mmHg 57%
    23:00 +4°C° 0 mm 2 mps 611 mmHg 64%

    24 March, Sunday

    Time Temperature Precipitation Wind Pressure Humidity
    00:00 +4°C° 0 mm 1 mps 610 mmHg 71%
    01:00 +4°C° 0 mm 1 mps 610 mmHg 78%
    02:00 +4°C° 0 mm 1 mps 609 mmHg 74%
    03:00 +4°C° 0 mm 1 mps 609 mmHg 71%
    04:00 +3°C° 0 mm 1 mps 609 mmHg 68%
    05:00 +4°C° 0 mm 1 mps 609 mmHg 62%
    06:00 +4°C° 0 mm 1 mps 609 mmHg 56%
    07:00 +5°C° 0 mm 1 mps 610 mmHg 51%
    08:00 +7°C° 0 mm 1 mps 610 mmHg 47%
    09:00 +8°C° 0 mm 1 mps 610 mmHg 43%
    10:00 +9°C° 0 mm 0 mps 611 mmHg 38%
    11:00 +11°C° 0 mm 1 mps 611 mmHg 37%
    12:00 +12°C° 0 mm 1 mps 611 mmHg 36%
    13:00 +13°C° 0 mm 1 mps 611 mmHg 35%
    14:00 +13°C° 0 mm 1 mps 610 mmHg 35%
    15:00 +14°C° 0 mm 2 mps 610 mmHg 35%
    16:00 +14°C° 0 mm 2 mps 610 mmHg 35%
    17:00 +13°C° 0 mm 2 mps 609 mmHg 37%
    18:00 +13°C° 0 mm 2 mps 609 mmHg 38%
    19:00 +12°C° 0 mm 1 mps 609 mmHg 39%
    20:00 +11°C° 0.1 mm 1 mps 608 mmHg 40%
    21:00 +11°C° 0.1 mm 1 mps 608 mmHg 41%
    22:00 +11°C° 0.1 mm 1 mps 608 mmHg 42%
    23:00 +10°C° 0.2 mm 1 mps 608 mmHg 45%

    25 March, Monday

    Time Temperature Precipitation Wind Pressure Humidity
    00:00 +10°C° 0.2 mm 1 mps 607 mmHg 48%
    01:00 +10°C° 0.2 mm 1 mps 607 mmHg 51%
    02:00 +10°C° 1 mm 1 mps 606 mmHg 56%
    03:00 +8°C° 1 mm 2 mps 605 mmHg 60%
    04:00 +8°C° 1 mm 2 mps 605 mmHg 64%
    05:00 +8°C° 1.2 mm 2 mps 605 mmHg 67%
    06:00 +7°C° 1.2 mm 2 mps 605 mmHg 71%
    07:00 +7°C° 1.2 mm 2 mps 605 mmHg 74%
    08:00 +8°C° 0.5 mm 2 mps 605 mmHg 71%
    09:00 +9°C° 0.5 mm 3 mps 606 mmHg 67%
    10:00 +10°C° 0.5 mm 3 mps 606 mmHg 64%
    11:00 +11°C° 1.1 mm 3 mps 607 mmHg 63%
    12:00 +11°C° 1.1 mm 4 mps 607 mmHg 62%
    13:00 +11°C° 1.1 mm 4 mps 607 mmHg 60%
    14:00 +10°C° 1 mm 5 mps 608 mmHg 62%
    15:00 +10°C° 1 mm 5 mps 608 mmHg 63%
    16:00 +9°C° 1 mm 6 mps 609 mmHg 65%
    17:00 +8°C° 0.2 mm 5 mps 609 mmHg 66%
    18:00 +7°C° 0.2 mm 5 mps 609 mmHg 68%
    19:00 +5°C° 0.2 mm 5 mps 610 mmHg 70%
    20:00 +5°C° 0 mm 4 mps 610 mmHg 71%
    21:00 +4°C° 0 mm 4 mps 611 mmHg 71%
    22:00 +4°C° 0 mm 3 mps 611 mmHg 72%
    23:00 +5°C° 0 mm 2 mps 611 mmHg 72%

    26 March, Tuesday

    Time Temperature Precipitation Wind Pressure Humidity
    00:00 +5°C° 0 mm 2 mps 611 mmHg 72%
    01:00 +6°C° 0 mm 1 mps 611 mmHg 73%
    02:00 +5°C° 0 mm 1 mps 611 mmHg 74%
    03:00 +4°C° 0 mm 2 mps 611 mmHg 75%
    04:00 +3°C° 0 mm 3 mps 610 mmHg 77%
    05:00 +3°C° 0.2 mm 3 mps 610 mmHg 80%
    06:00 +3°C° 0.2 mm 3 mps 611 mmHg 84%
    07:00 +3°C° 0.2 mm 3 mps 611 mmHg 88%
    08:00 +3°C° 0.7 mm 4 mps 611 mmHg 87%
    09:00 +4°C° 0.7 mm 4 mps 611 mmHg 85%
    10:00 +3°C° 0.7 mm 5 mps 611 mmHg 84%
    11:00 +4°C° 3.8 mm 4 mps 610 mmHg 85%
    12:00 +3°C° 3.8 mm 4 mps 609 mmHg 87%
    13:00 +3°C° 3.8 mm 4 mps 608 mmHg 89%
    14:00 +3°C° 3.8 mm 3 mps 608 mmHg 88%
    15:00 +3°C° 3.8 mm 3 mps 607 mmHg 88%
    16:00 +3°C° 3.8 mm 3 mps 606 mmHg 88%
    17:00 +3°C° 3.5 mm 3 mps 607 mmHg 89%
    18:00 +4°C° 3.5 mm 2 mps 607 mmHg 90%
    19:00 +5°C° 3.5 mm 2 mps 607 mmHg 91%
    20:00 +5°C° 0.3 mm 2 mps 607 mmHg 91%
    21:00 +6°C° 0.3 mm 1 mps 607 mmHg 91%
    22:00 +7°C° 0.3 mm 1 mps 607 mmHg 91%
    23:00 +7°C° 0.1 mm 1 mps 607 mmHg 91%
    Show more